Location: Newark
(23.3970°S, 47.6010°W)
Time: 07:27:24
(UTC+00:00)

deb Explorer IX - Pass Details

Date: 25 February 2020
Orbit: 548 x 1100 km, 38.8° (Epoch: 08 April)

Event Time Altitude Azimuth Distance (km) Brightness Sun altitude
Rises 22:03:11 0° 314° (NW) 3,165 ? -5.4°
Reaches altitude 10° 22:05:29 10° 318° (NW) 2,327 ? -5.9°
Maximum altitude 22:10:58 63° 38° (NE) 973 ? -7.1°
Drops below altitude 10° 22:17:26 10° 117° (ESE) 2,731 ? -8.6°
Sets 22:20:19 0° 120° (ESE) 3,756 ? -9.2°
